Location: Lane
(33.5226°N, 79.8788°W)
Time: 20:00:35
(UTC+00:00)

Explorer 11/Cluster Stage 4 - Pass Details

Date: 09 October 2022
Orbit: 466 x 1247 km, 28.8° (Epoch: 01 December)

Event Time Altitude Azimuth Distance (km) Brightness Sun altitude
Rises 19:38:58 0° 271° (W) 4,151 10.9 36.1°
Reaches altitude 10° 19:42:36 10° 258° (WSW) 3,125 10.7 35.6°
Maximum altitude 19:48:29 23° 210° (SSW) 2,136 10.4 34.6°
Drops below altitude 10° 19:53:46 10° 160° (SSE) 2,771 9.7 33.7°
Sets 19:56:47 0° 146° (SE) 3,582 10.0 33.2°
